Time,TemperatureF,DewpointF,PressureIn,WindDirection,WindDirectionDegrees,WindSpeedMPH,WindSpeedGustMPH,Humidity,HourlyPrecipIn,Conditions,Clouds,dailyrainin,SoftwareType,DateUTC
2017-04-29 00:00:00,52.5,49.4,29.96,NNE,30,6.0,8.0,89,0.00,,,0.00,Wunderground v.1.15,2017-04-29 05:00:00,
2017-04-29 00:10:00,52.1,48.7,29.95,NNE,26,8.0,8.0,88,0.00,,,0.00,Wunderground v.1.15,2017-04-29 05:10:00,
2017-04-29 00:15:00,51.8,48.4,29.95,North,10,9.0,9.0,88,0.00,,,0.00,Wunderground v.1.15,2017-04-29 05:15:00,
2017-04-29 00:25:00,51.6,47.9,29.96,NNE,24,10.0,14.0,87,0.00,,,0.00,Wunderground v.1.15,2017-04-29 05:25:00,
2017-04-29 00:30:00,51.5,47.8,29.95,ENE,58,10.0,11.0,87,0.00,,,0.00,Wunderground v.1.15,2017-04-29 05:30:00,
2017-04-29 00:40:00,51.4,47.7,29.96,ENE,76,10.0,10.0,87,0.00,,,0.00,Wunderground v.1.15,2017-04-29 05:40:00,
2017-04-29 00:45:00,51.2,47.5,29.96,ENE,58,10.0,10.0,87,0.00,,,0.00,Wunderground v.1.15,2017-04-29 05:45:00,
2017-04-29 00:55:00,51.0,47.3,29.97,NE,45,10.0,10.0,87,0.00,,,0.00,Wunderground v.1.15,2017-04-29 05:55:00,
2017-04-29 01:00:00,50.9,47.2,29.97,ENE,63,10.0,10.0,87,0.00,,,0.00,Wunderground v.1.15,2017-04-29 06:00:00,
2017-04-29 01:10:00,50.7,46.7,29.99,NE,36,11.0,11.0,86,0.00,,,0.00,Wunderground v.1.15,2017-04-29 06:10:00,
2017-04-29 01:15:00,50.6,46.3,29.99,ENE,68,11.0,12.0,85,0.00,,,0.00,Wunderground v.1.15,2017-04-29 06:15:00,
2017-04-29 01:25:00,50.4,45.7,30.00,ENE,59,10.0,11.0,84,0.00,,,0.00,Wunderground v.1.15,2017-04-29 06:25:00,
2017-04-29 01:35:00,50.3,45.3,30.02,East,92,9.0,10.0,83,0.00,,,0.00,Wunderground v.1.15,2017-04-29 06:35:00,
2017-04-29 01:40:00,50.2,45.6,30.02,ENE,67,8.0,9.0,84,0.00,,,0.00,Wunderground v.1.15,2017-04-29 06:40:00,
2017-04-29 01:50:00,50.0,44.7,30.00,ENE,63,11.0,11.0,82,0.00,,,0.00,Wunderground v.1.15,2017-04-29 06:50:00,
2017-04-29 01:55:00,49.9,44.6,30.01,NE,49,10.0,11.0,82,0.00,,,0.00,Wunderground v.1.15,2017-04-29 06:55:00,
2017-04-29 02:05:00,49.8,44.5,30.01,ENE,76,11.0,13.0,82,0.00,,,0.00,Wunderground v.1.15,2017-04-29 07:05:00,
2017-04-29 02:10:00,49.7,44.1,30.01,ENE,63,10.0,12.0,81,0.00,,,0.00,Wunderground v.1.15,2017-04-29 07:10:00,
2017-04-29 02:20:00,49.6,44.0,30.01,ENE,69,11.0,11.0,81,0.00,,,0.00,Wunderground v.1.15,2017-04-29 07:20:00,
2017-04-29 02:25:00,49.5,43.9,30.01,ENE,57,9.0,11.0,81,0.00,,,0.00,Wunderground v.1.15,2017-04-29 07:25:00,
2017-04-29 02:30:00,49.4,43.8,30.01,NE,44,9.0,9.0,81,0.00,,,0.00,Wunderground v.1.15,2017-04-29 07:30:00,
2017-04-29 02:40:00,49.2,43.9,30.01,NE,40,8.0,9.0,82,0.00,,,0.00,Wunderground v.1.15,2017-04-29 07:40:00,
2017-04-29 02:50:00,49.0,44.1,30.00,NE,46,8.0,8.0,83,0.00,,,0.00,Wunderground v.1.15,2017-04-29 07:50:00,
2017-04-29 02:55:00,48.8,43.9,30.00,ENE,61,8.0,8.0,83,0.00,,,0.00,Wunderground v.1.15,2017-04-29 07:55:00,
2017-04-29 03:05:00,48.7,44.1,30.01,NE,43,9.0,14.0,84,0.00,,,0.00,Wunderground v.1.15,2017-04-29 08:05:00,
2017-04-29 03:15:00,48.4,44.1,30.01,NE,41,12.0,18.0,85,0.00,,,0.00,Wunderground v.1.15,2017-04-29 08:15:00,
2017-04-29 03:20:00,48.2,43.9,30.01,NE,36,12.0,12.0,85,0.00,,,0.00,Wunderground v.1.15,2017-04-29 08:20:00,
2017-04-29 03:30:00,47.8,44.1,30.01,East,80,12.0,15.0,87,0.00,,,0.00,Wunderground v.1.15,2017-04-29 08:30:00,
2017-04-29 03:35:00,47.7,44.3,30.01,NE,55,11.0,15.0,88,0.00,,,0.00,Wunderground v.1.15,2017-04-29 08:35:00,
2017-04-29 03:45:00,47.6,44.2,30.03,NE,40,10.0,11.0,88,0.00,,,0.00,Wunderground v.1.15,2017-04-29 08:45:00,
2017-04-29 03:50:00,47.6,44.2,30.04,NE,55,10.0,11.0,88,0.00,,,0.00,Wunderground v.1.15,2017-04-29 08:50:00,
2017-04-29 04:00:00,47.6,43.9,30.04,NE,44,11.0,11.0,87,0.00,,,0.00,Wunderground v.1.15,2017-04-29 09:00:00,
2017-04-29 04:05:00,47.6,43.9,30.04,ENE,57,10.0,13.0,87,0.00,,,0.00,Wunderground v.1.15,2017-04-29 09:05:00,
2017-04-29 04:15:00,47.5,43.8,30.05,NE,36,10.0,13.0,87,0.00,,,0.00,Wunderground v.1.15,2017-04-29 09:15:00,
2017-04-29 04:20:00,47.4,43.4,30.05,NE,55,12.0,15.0,86,0.00,,,0.00,Wunderground v.1.15,2017-04-29 09:20:00,
2017-04-29 04:30:00,47.3,43.3,30.06,East,79,10.0,10.0,86,0.00,,,0.00,Wunderground v.1.15,2017-04-29 09:30:00,
2017-04-29 04:35:00,47.2,42.9,30.06,ENE,65,10.0,10.0,85,0.00,,,0.00,Wunderground v.1.15,2017-04-29 09:35:00,
2017-04-29 04:45:00,47.2,42.9,30.07,NE,56,9.0,11.0,85,0.00,,,0.00,Wunderground v.1.15,2017-04-29 09:45:00,
2017-04-29 04:55:00,47.1,42.8,30.09,ENE,71,8.0,8.0,85,0.00,,,0.00,Wunderground v.1.15,2017-04-29 09:55:00,
2017-04-29 05:00:00,47.1,42.5,30.09,NE,52,8.0,9.0,84,0.00,,,0.00,Wunderground v.1.15,2017-04-29 10:00:00,
2017-04-29 05:10:00,47.2,42.3,30.10,NE,52,9.0,9.0,83,0.00,,,0.00,Wunderground v.1.15,2017-04-29 10:10:00,
2017-04-29 05:15:00,47.1,41.9,30.11,NE,54,10.0,13.0,82,0.00,,,0.00,Wunderground v.1.15,2017-04-29 10:15:00,
2017-04-29 05:25:00,47.0,41.8,30.11,NE,42,10.0,10.0,82,0.00,,,0.00,Wunderground v.1.15,2017-04-29 10:25:00,
2017-04-29 05:30:00,46.9,41.7,30.12,East,84,10.0,10.0,82,0.00,,,0.00,Wunderground v.1.15,2017-04-29 10:30:00,
2017-04-29 05:40:00,46.8,41.9,30.12,NE,43,9.0,9.0,83,0.00,,,0.00,Wunderground v.1.15,2017-04-29 10:40:00,
2017-04-29 05:45:00,46.8,41.9,30.12,NE,55,9.0,9.0,83,0.00,,,0.00,Wunderground v.1.15,2017-04-29 10:45:00,
2017-04-29 05:55:00,46.6,41.7,30.11,NE,40,10.0,11.0,83,0.00,,,0.00,Wunderground v.1.15,2017-04-29 10:55:00,
2017-04-29 06:00:00,46.5,41.9,30.11,ENE,59,9.0,10.0,84,0.00,,,0.00,Wunderground v.1.15,2017-04-29 11:00:00,
2017-04-29 06:10:00,46.5,41.9,30.12,ENE,69,10.0,10.0,84,0.00,,,0.00,Wunderground v.1.15,2017-04-29 11:10:00,
2017-04-29 06:20:00,46.4,41.5,30.10,NE,40,11.0,12.0,83,0.00,,,0.00,Wunderground v.1.15,2017-04-29 11:20:00,
2017-04-29 06:25:00,46.3,41.4,30.10,NE,51,11.0,12.0,83,0.00,,,0.00,Wunderground v.1.15,2017-04-29 11:25:00,
2017-04-29 06:35:00,46.2,41.3,30.09,NE,34,12.0,14.0,83,0.00,,,0.00,Wunderground v.1.15,2017-04-29 11:35:00,
2017-04-29 06:45:00,46.1,40.9,30.10,NNE,30,12.0,13.0,82,0.00,,,0.00,Wunderground v.1.15,2017-04-29 11:45:00,
2017-04-29 06:55:00,46.1,40.9,30.11,ENE,57,11.0,12.0,82,0.00,,,0.00,Wunderground v.1.15,2017-04-29 11:55:00,
2017-04-29 07:00:00,46.2,41.0,30.10,ENE,71,11.0,11.0,82,0.00,,,0.00,Wunderground v.1.15,2017-04-29 12:00:00,
2017-04-29 07:10:00,46.1,40.9,30.10,NNE,30,11.0,11.0,82,0.00,,,0.00,Wunderground v.1.15,2017-04-29 12:10:00,
2017-04-29 07:20:00,46.2,41.0,30.11,NE,36,11.0,11.0,82,0.00,,,0.00,Wunderground v.1.15,2017-04-29 12:20:00,
2017-04-29 07:25:00,46.2,41.0,30.11,NE,48,12.0,13.0,82,0.00,,,0.00,Wunderground v.1.15,2017-04-29 12:25:00,
2017-04-29 07:35:00,46.3,40.8,30.11,NE,40,11.0,16.0,81,0.00,,,0.00,Wunderground v.1.15,2017-04-29 12:35:00,
2017-04-29 07:45:00,46.2,40.7,30.10,ENE,59,14.0,20.0,81,0.00,,,0.00,Wunderground v.1.15,2017-04-29 12:45:00,
2017-04-29 07:55:00,46.2,40.7,30.11,NNE,24,12.0,14.0,81,0.00,,,0.00,Wunderground v.1.15,2017-04-29 12:55:00,
2017-04-29 08:05:00,46.1,40.3,30.10,NE,51,11.0,13.0,80,0.00,,,0.00,Wunderground v.1.15,2017-04-29 13:05:00,
2017-04-29 08:10:00,46.2,40.4,30.10,NNE,30,12.0,12.0,80,0.00,,,0.00,Wunderground v.1.15,2017-04-29 13:10:00,
2017-04-29 08:20:00,46.3,40.5,30.10,NNE,32,12.0,12.0,80,0.00,,,0.00,Wunderground v.1.15,2017-04-29 13:20:00,
2017-04-29 08:25:00,46.3,40.5,30.11,ENE,66,11.0,12.0,80,0.00,,,0.00,Wunderground v.1.15,2017-04-29 13:25:00,
2017-04-29 08:35:00,46.4,40.2,30.10,NE,34,11.0,12.0,79,0.00,,,0.00,Wunderground v.1.15,2017-04-29 13:35:00,
2017-04-29 08:45:00,46.6,40.4,30.10,NNE,27,10.0,10.0,79,0.00,,,0.00,Wunderground v.1.15,2017-04-29 13:45:00,
2017-04-29 08:50:00,46.7,40.5,30.10,ENE,61,10.0,10.0,79,0.00,,,0.00,Wunderground v.1.15,2017-04-29 13:50:00,
2017-04-29 09:00:00,46.7,39.5,30.09,ENE,61,11.0,12.0,76,0.00,,,0.00,Wunderground v.1.15,2017-04-29 14:00:00,
2017-04-29 09:05:00,46.8,39.6,30.09,ENE,61,12.0,12.0,76,0.00,,,0.00,Wunderground v.1.15,2017-04-29 14:05:00,
2017-04-29 09:15:00,46.8,39.3,30.08,NE,38,12.0,13.0,75,0.00,,,0.00,Wunderground v.1.15,2017-04-29 14:15:00,
2017-04-29 09:20:00,46.7,39.2,30.08,NE,34,13.0,16.0,75,0.00,,,0.00,Wunderground v.1.15,2017-04-29 14:20:00,
2017-04-29 09:30:00,47.0,39.1,30.09,NE,49,13.0,13.0,74,0.00,,,0.00,Wunderground v.1.15,2017-04-29 14:30:00,
2017-04-29 09:35:00,47.2,39.0,30.09,NE,37,12.0,14.0,73,0.00,,,0.00,Wunderground v.1.15,2017-04-29 14:35:00,
2017-04-29 09:45:00,47.3,38.4,30.07,ENE,61,14.0,15.0,71,0.00,,,0.00,Wunderground v.1.15,2017-04-29 14:45:00,
2017-04-29 09:50:00,46.9,36.9,30.06,NNE,32,15.0,19.0,68,0.00,,,0.00,Wunderground v.1.15,2017-04-29 14:50:00,
2017-04-29 10:00:00,46.7,37.4,30.05,NNE,30,16.0,20.0,70,0.00,,,0.00,Wunderground v.1.15,2017-04-29 15:00:00,
2017-04-29 10:05:00,46.7,37.1,30.06,NE,39,16.0,20.0,69,0.00,,,0.00,Wunderground v.1.15,2017-04-29 15:05:00,
2017-04-29 10:15:00,46.7,37.4,30.09,ENE,59,14.0,16.0,70,0.00,,,0.00,Wunderground v.1.15,2017-04-29 15:15:00,
2017-04-29 10:20:00,46.8,37.2,30.09,NE,37,12.0,12.0,69,0.00,,,0.00,Wunderground v.1.15,2017-04-29 15:20:00,
2017-04-29 10:30:00,46.8,37.5,30.09,ENE,64,11.0,11.0,70,0.00,,,0.00,Wunderground v.1.15,2017-04-29 15:30:00,
2017-04-29 10:40:00,46.8,38.2,30.13,ENE,63,10.0,10.0,72,0.00,,,0.00,Wunderground v.1.15,2017-04-29 15:40:00,
2017-04-29 10:50:00,46.5,38.3,30.15,ENE,68,11.0,11.0,73,0.00,,,0.00,Wunderground v.1.15,2017-04-29 15:50:00,
2017-04-29 11:00:00,46.6,38.1,30.18,East,80,9.0,9.0,72,0.00,,,0.00,Wunderground v.1.15,2017-04-29 16:00:00,
2017-04-29 11:05:00,46.5,37.6,30.18,ENE,65,10.0,10.0,71,0.00,,,0.00,Wunderground v.1.15,2017-04-29 16:05:00,
2017-04-29 11:15:00,46.1,38.3,30.17,East,83,10.0,12.0,74,0.00,,,0.00,Wunderground v.1.15,2017-04-29 16:15:00,
2017-04-29 11:20:00,46.0,38.9,30.17,NE,49,10.0,10.0,76,0.00,,,0.00,Wunderground v.1.15,2017-04-29 16:20:00,
2017-04-29 11:30:00,45.4,39.3,30.16,ESE,102,9.0,9.0,79,0.00,,,0.01,Wunderground v.1.15,2017-04-29 16:30:00,
2017-04-29 11:35:00,45.2,39.4,30.15,East,87,10.0,10.0,80,0.00,,,0.01,Wunderground v.1.15,2017-04-29 16:35:00,
2017-04-29 11:45:00,45.1,40.2,30.15,ENE,58,9.0,10.0,83,0.04,,,0.02,Wunderground v.1.15,2017-04-29 16:45:00,
2017-04-29 11:50:00,44.9,40.0,30.17,NE,54,10.0,10.0,83,0.04,,,0.02,Wunderground v.1.15,2017-04-29 16:50:00,
2017-04-29 12:00:00,44.3,39.8,30.17,NE,34,10.0,10.0,84,0.12,,,0.04,Wunderground v.1.15,2017-04-29 17:00:00,
2017-04-29 12:10:00,43.8,39.9,30.17,NE,51,9.0,10.0,86,0.19,,,0.07,Wunderground v.1.15,2017-04-29 17:10:00,
2017-04-29 12:15:00,43.5,39.9,30.17,ENE,72,9.0,10.0,87,0.23,,,0.09,Wunderground v.1.15,2017-04-29 17:15:00,
2017-04-29 12:25:00,43.0,39.7,30.16,NNE,13,10.0,10.0,88,0.20,,,0.13,Wunderground v.1.15,2017-04-29 17:25:00,
2017-04-29 12:30:00,42.8,39.8,30.16,ENE,71,10.0,10.0,89,0.12,,,0.14,Wunderground v.1.15,2017-04-29 17:30:00,
2017-04-29 12:40:00,42.5,39.8,30.16,ENE,74,9.0,14.0,90,0.13,,,0.16,Wunderground v.1.15,2017-04-29 17:40:00,
2017-04-29 12:45:00,42.4,39.7,30.16,NE,40,10.0,14.0,90,0.13,,,0.17,Wunderground v.1.15,2017-04-29 17:45:00,
2017-04-29 12:55:00,42.3,39.9,30.15,NE,41,9.0,11.0,91,0.15,,,0.19,Wunderground v.1.15,2017-04-29 17:55:00,
2017-04-29 13:05:00,41.9,39.5,30.13,ENE,59,11.0,13.0,91,0.13,,,0.22,Wunderground v.1.15,2017-04-29 18:05:00,
2017-04-29 13:15:00,41.7,39.3,30.11,NNE,24,12.0,14.0,91,0.11,,,0.23,Wunderground v.1.15,2017-04-29 18:15:00,
2017-04-29 13:25:00,41.4,39.0,30.10,ENE,63,10.0,14.0,91,0.11,,,0.24,Wunderground v.1.15,2017-04-29 18:25:00,
2017-04-29 13:35:00,41.0,38.9,30.07,NE,43,15.0,25.0,92,0.08,,,0.26,Wunderground v.1.15,2017-04-29 18:35:00,
2017-04-29 13:40:00,41.0,38.6,30.06,NE,39,17.0,18.0,91,0.08,,,0.26,Wunderground v.1.15,2017-04-29 18:40:00,
2017-04-29 13:50:00,40.7,38.3,30.04,ENE,71,17.0,18.0,91,0.09,,,0.28,Wunderground v.1.15,2017-04-29 18:50:00,
2017-04-29 13:55:00,40.8,38.7,30.05,NE,34,16.0,18.0,92,0.14,,,0.29,Wunderground v.1.15,2017-04-29 18:55:00,
2017-04-29 14:05:00,40.8,38.4,30.07,ENE,65,16.0,16.0,91,0.12,,,0.31,Wunderground v.1.15,2017-04-29 19:05:00,
2017-04-29 14:10:00,40.8,38.4,30.07,NNE,26,16.0,18.0,91,0.08,,,0.31,Wunderground v.1.15,2017-04-29 19:10:00,
2017-04-29 14:20:00,40.9,38.8,30.09,ENE,59,13.0,13.0,92,0.04,,,0.32,Wunderground v.1.15,2017-04-29 19:20:00,
2017-04-29 14:30:00,40.9,38.8,30.07,ENE,63,14.0,15.0,92,0.06,,,0.33,Wunderground v.1.15,2017-04-29 19:30:00,
2017-04-29 14:35:00,40.9,38.5,30.08,ENE,78,15.0,15.0,91,0.12,,,0.34,Wunderground v.1.15,2017-04-29 19:35:00,
2017-04-29 14:45:00,40.8,38.7,30.10,NNE,28,13.0,14.0,92,0.09,,,0.35,Wunderground v.1.15,2017-04-29 19:45:00,
2017-04-29 14:50:00,40.7,38.6,30.11,NE,55,12.0,13.0,92,0.05,,,0.35,Wunderground v.1.15,2017-04-29 19:50:00,
2017-04-29 15:00:00,40.7,38.8,30.09,NE,36,10.0,12.0,93,0.27,,,0.38,Wunderground v.1.15,2017-04-29 20:00:00,
2017-04-29 15:10:00,40.6,38.7,30.13,NE,36,10.0,10.0,93,0.10,,,0.40,Wunderground v.1.15,2017-04-29 20:10:00,
2017-04-29 15:20:00,40.5,38.6,30.10,NE,51,9.0,14.0,93,0.23,,,0.43,Wunderground v.1.15,2017-04-29 20:20:00,
2017-04-29 15:30:00,40.5,38.9,30.10,NNE,14,11.0,11.0,94,0.31,,,0.48,Wunderground v.1.15,2017-04-29 20:30:00,
2017-04-29 15:40:00,40.4,38.8,30.09,NE,40,10.0,10.0,94,0.26,,,0.52,Wunderground v.1.15,2017-04-29 20:40:00,
2017-04-29 15:45:00,40.4,38.8,30.09,NE,36,9.0,11.0,94,0.25,,,0.54,Wunderground v.1.15,2017-04-29 20:45:00,
2017-04-29 15:55:00,40.4,38.8,30.08,NE,38,11.0,12.0,94,0.27,,,0.58,Wunderground v.1.15,2017-04-29 20:55:00,
2017-04-29 16:00:00,40.3,38.7,30.07,NNE,19,12.0,16.0,94,0.22,,,0.60,Wunderground v.1.15,2017-04-29 21:00:00,
2017-04-29 16:10:00,40.2,38.9,30.05,NE,39,14.0,14.0,95,0.20,,,0.64,Wunderground v.1.15,2017-04-29 21:10:00,
2017-04-29 16:15:00,40.2,38.9,30.04,NE,55,13.0,14.0,95,0.37,,,0.67,Wunderground v.1.15,2017-04-29 21:15:00,
2017-04-29 16:25:00,40.2,38.9,30.06,NNE,27,12.0,13.0,95,0.40,,,0.73,Wunderground v.1.15,2017-04-29 21:25:00,
2017-04-29 16:30:00,40.2,38.9,30.06,NE,53,11.0,11.0,95,0.51,,,0.77,Wunderground v.1.15,2017-04-29 21:30:00,
2017-04-29 16:40:00,40.2,38.9,30.06,NNE,29,13.0,13.0,95,0.28,,,0.82,Wunderground v.1.15,2017-04-29 21:40:00,
2017-04-29 16:50:00,40.2,38.9,30.08,NNE,21,11.0,11.0,95,0.45,,,0.87,Wunderground v.1.15,2017-04-29 21:50:00,
2017-04-29 16:55:00,40.1,38.8,30.05,NE,42,12.0,15.0,95,0.49,,,0.91,Wunderground v.1.15,2017-04-29 21:55:00,
2017-04-29 17:05:00,40.1,38.8,30.04,NNE,28,14.0,23.0,95,0.30,,,0.97,Wunderground v.1.15,2017-04-29 22:05:00,
2017-04-29 17:10:00,40.0,38.7,30.06,NE,42,15.0,15.0,95,0.31,,,1.00,Wunderground v.1.15,2017-04-29 22:10:00,
2017-04-29 17:20:00,39.9,38.6,30.03,NE,38,15.0,22.0,95,0.43,,,1.06,Wunderground v.1.15,2017-04-29 22:20:00,
2017-04-29 17:25:00,39.9,38.6,30.04,NNE,26,16.0,22.0,95,0.47,,,1.10,Wunderground v.1.15,2017-04-29 22:25:00,
2017-04-29 17:35:00,39.8,38.5,30.02,NE,36,18.0,19.0,95,0.57,,,1.16,Wunderground v.1.15,2017-04-29 22:35:00,
2017-04-29 17:45:00,39.7,38.4,30.03,NNE,24,16.0,17.0,95,0.30,,,1.23,Wunderground v.1.15,2017-04-29 22:45:00,
2017-04-29 17:50:00,39.5,38.2,30.03,NE,36,18.0,18.0,95,0.39,,,1.26,Wunderground v.1.15,2017-04-29 22:50:00,
2017-04-29 18:00:00,39.5,38.2,30.03,NE,47,17.0,17.0,95,0.40,,,1.33,Wunderground v.1.15,2017-04-29 23:00:00,
2017-04-29 18:05:00,39.5,38.2,30.02,ENE,74,17.0,20.0,95,0.37,,,1.38,Wunderground v.1.15,2017-04-29 23:05:00,
2017-04-29 18:15:00,39.5,38.2,30.03,NNE,33,17.0,17.0,95,0.67,,,1.47,Wunderground v.1.15,2017-04-29 23:15:00,
2017-04-29 18:20:00,39.5,38.2,30.00,NNE,23,17.0,23.0,95,0.67,,,1.53,Wunderground v.1.15,2017-04-29 23:20:00,
2017-04-29 18:30:00,39.4,38.1,30.00,NE,35,18.0,20.0,95,0.58,,,1.69,Wunderground v.1.15,2017-04-29 23:30:00,
2017-04-29 18:40:00,39.3,38.0,29.98,ENE,58,16.0,16.0,95,1.13,,,1.81,Wunderground v.1.15,2017-04-29 23:40:00,
2017-04-29 18:45:00,39.3,38.0,29.98,NE,56,17.0,23.0,95,0.95,,,1.91,Wunderground v.1.15,2017-04-29 23:45:00,
2017-04-29 18:55:00,39.6,38.3,29.98,NNE,14,15.0,18.0,95,0.86,,,2.02,Wunderground v.1.15,2017-04-29 23:55:00,
2017-04-29 19:00:00,39.6,38.3,29.97,NE,34,15.0,15.0,95,0.30,,,2.06,Wunderground v.1.15,2017-04-30 00:00:00,
2017-04-29 19:10:00,39.7,38.4,29.95,NE,43,14.0,19.0,95,1.02,,,2.12,Wunderground v.1.15,2017-04-30 00:10:00,
2017-04-29 19:20:00,40.1,39.1,29.96,NE,45,15.0,16.0,96,0.97,,,2.23,Wunderground v.1.15,2017-04-30 00:20:00,
2017-04-29 19:25:00,40.2,39.2,29.94,North,355,16.0,24.0,96,0.91,,,2.33,Wunderground v.1.15,2017-04-30 00:25:00,
2017-04-29 19:35:00,40.6,39.5,29.93,NNE,26,20.0,20.0,96,0.67,,,2.46,Wunderground v.1.15,2017-04-30 00:35:00,
2017-04-29 19:40:00,40.8,39.7,29.94,NNE,33,20.0,20.0,96,0.43,,,2.50,Wunderground v.1.15,2017-04-30 00:40:00,
2017-04-29 19:50:00,41.2,40.1,29.95,NE,39,18.0,18.0,96,0.43,,,2.59,Wunderground v.1.15,2017-04-30 00:50:00,
2017-04-29 20:00:00,41.6,40.3,29.94,NE,46,20.0,20.0,95,0.27,,,2.64,Wunderground v.1.15,2017-04-30 01:00:00,
2017-04-29 20:05:00,41.7,40.4,29.94,NNE,24,20.0,22.0,95,0.40,,,2.68,Wunderground v.1.15,2017-04-30 01:05:00,
2017-04-29 20:15:00,42.0,40.7,29.94,ENE,64,17.0,24.0,95,0.28,,,2.74,Wunderground v.1.15,2017-04-30 01:15:00,
2017-04-29 20:20:00,42.1,40.8,29.92,NE,47,17.0,17.0,95,0.20,,,2.75,Wunderground v.1.15,2017-04-30 01:20:00,
2017-04-29 20:30:00,42.2,40.9,29.90,NE,53,18.0,18.0,95,0.14,,,2.77,Wunderground v.1.15,2017-04-30 01:30:00,
2017-04-29 20:35:00,42.4,41.1,29.88,ESE,112,17.0,18.0,95,0.19,,,2.79,Wunderground v.1.15,2017-04-30 01:35:00,
2017-04-29 20:45:00,42.6,41.5,29.88,East,96,16.0,18.0,96,0.09,,,2.80,Wunderground v.1.15,2017-04-30 01:45:00,
2017-04-29 20:55:00,42.9,41.8,29.94,East,92,13.0,16.0,96,0.07,,,2.81,Wunderground v.1.15,2017-04-30 01:55:00,
2017-04-29 21:00:00,43.2,42.1,29.96,ENE,76,10.0,11.0,96,0.05,,,2.81,Wunderground v.1.15,2017-04-30 02:00:00,
2017-04-29 21:10:00,43.8,42.7,29.95,ENE,67,14.0,14.0,96,0.00,,,2.81,Wunderground v.1.15,2017-04-30 02:10:00,
2017-04-29 21:15:00,44.0,42.9,29.97,ENE,69,14.0,22.0,96,0.00,,,2.81,Wunderground v.1.15,2017-04-30 02:15:00,
2017-04-29 21:25:00,44.3,43.0,30.00,NE,46,12.0,14.0,95,0.00,,,2.81,Wunderground v.1.15,2017-04-30 02:25:00,
2017-04-29 21:30:00,44.4,43.1,30.00,ENE,73,11.0,11.0,95,0.00,,,2.81,Wunderground v.1.15,2017-04-30 02:30:00,
2017-04-29 21:40:00,44.7,43.4,30.00,ENE,67,12.0,12.0,95,0.00,,,2.81,Wunderground v.1.15,2017-04-30 02:40:00,
2017-04-29 21:45:00,44.8,43.5,30.00,ENE,67,12.0,12.0,95,0.00,,,2.81,Wunderground v.1.15,2017-04-30 02:45:00,
2017-04-29 21:55:00,44.8,43.5,29.99,ENE,69,11.0,11.0,95,0.00,,,2.82,Wunderground v.1.15,2017-04-30 02:55:00,
2017-04-29 22:00:00,44.9,43.6,29.99,ENE,73,12.0,12.0,95,0.00,,,2.82,Wunderground v.1.15,2017-04-30 03:00:00,
2017-04-29 22:10:00,44.8,43.5,29.98,ENE,61,11.0,11.0,95,0.00,,,2.82,Wunderground v.1.15,2017-04-30 03:10:00,
2017-04-29 22:20:00,44.9,43.3,29.99,East,90,10.0,12.0,94,0.00,,,2.82,Wunderground v.1.15,2017-04-30 03:20:00,
2017-04-29 22:25:00,44.9,43.3,29.99,NE,35,10.0,12.0,94,0.00,,,2.82,Wunderground v.1.15,2017-04-30 03:25:00,
2017-04-29 22:35:00,45.0,43.4,29.98,ENE,67,11.0,13.0,94,0.00,,,2.82,Wunderground v.1.15,2017-04-30 03:35:00,
2017-04-29 22:40:00,45.2,43.6,29.98,NE,43,12.0,12.0,94,0.00,,,2.82,Wunderground v.1.15,2017-04-30 03:40:00,
2017-04-29 22:50:00,45.4,43.8,29.98,NE,50,11.0,12.0,94,0.00,,,2.82,Wunderground v.1.15,2017-04-30 03:50:00,
2017-04-29 22:55:00,45.4,43.8,29.98,East,80,11.0,12.0,94,0.00,,,2.82,Wunderground v.1.15,2017-04-30 03:55:00,
2017-04-29 23:05:00,45.4,43.8,29.98,NE,46,11.0,13.0,94,0.00,,,2.82,Wunderground v.1.15,2017-04-30 04:05:00,
2017-04-29 23:15:00,45.4,43.8,29.96,NE,55,12.0,15.0,94,0.00,,,2.82,Wunderground v.1.15,2017-04-30 04:15:00,
2017-04-29 23:20:00,45.5,43.9,29.96,ENE,60,13.0,13.0,94,0.00,,,2.82,Wunderground v.1.15,2017-04-30 04:20:00,